FW6767 Weather Reports


time (UTC)temp
C
wind
direction
speed
KPH
gust
KPH
rain 1hr
cm
rain 24hr
cm
rain mn
cm
humidity
%
barometer
mb
20260509000054 17 0 0.0 0.0 0.00 0.00 0.00 79 1015.1
20260508234556 18 0 0.0 0.0 0.00 0.00 0.00 76 1014.9
20260508233106 18 0 0.0 0.0 0.00 0.00 0.00 73 1014.7
20260508231633 18 0 0.0 0.0 0.00 0.00 0.00 72 1014.9
20260508224609 19 0 0.0 1.6 0.00 0.00 0.00 71 1014.8
20260508223100 19 0 0.0 1.6 0.00 0.00 0.00 70 1014.7
20260508221556 20 0 0.0 1.6 0.00 0.00 0.00 69 1015.0
20260508214629 20 0 0.0 1.6 0.00 0.00 0.00 66 1014.8
20260508213058 21 0 0.0 1.6 0.00 0.00 0.00 67 1014.6
20260508211556 21 294 0.0 1.6 0.00 0.00 0.00 65 1014.8
20260508210057 21 294 0.0 3.2 0.00 0.00 0.00 64 1015.1
20260508204559 21 294 0.0 3.2 0.00 0.00 0.00 62 1014.8
20260508203116 21 294 0.0 3.2 0.00 0.00 0.00 62 1015.0
20260508201555 21 0 0.0 4.8 0.00 0.00 0.00 58 1015.2
20260508200059 22 179 0.0 4.8 0.00 0.00 0.00 56 1015.2
20260508194557 22 275 0.0 6.4 0.00 0.00 0.00 53 1015.4
20260508193132 22 0 1.6 4.8 0.00 0.00 0.00 52 1015.8
20260508191604 22 0 1.6 6.4 0.00 0.00 0.00 52 1016.1
20260508190056 22 131 1.6 8.0 0.00 0.00 0.00 47 1016.2
20260508184556 22 0 1.6 9.7 0.00 0.00 0.00 47 1016.4
20260508183057 23 13 1.6 6.4 0.00 0.00 0.00 47 1016.7
20260508181556 22 0 1.6 8.0 0.00 0.00 0.00 51 1016.9
20260508180119 22 228 1.6 6.4 0.00 0.00 0.00 56 1017.0
20260508174611 22 103 1.6 4.8 0.00 0.00 0.00 54 1017.4
20260508173055 21 0 0.0 4.8 0.00 0.00 0.00 55 1017.6
20260508171556 22 0 0.0 4.8 0.00 0.00 0.00 52 1017.8
20260508170057 22 0 0.0 6.4 0.00 0.00 0.00 52 1017.7
20260508164604 21 321 3.2 6.4 0.00 0.00 0.00 50 1018.2
20260508163054 20 297 0.0 14.5 0.00 0.00 0.00 55 1018.4
20260508161604 20 173 1.6 6.4 0.00 0.00 0.00 61 1018.7
20260508160056 20 360 1.6 11.3 0.00 0.00 0.00 60 1018.7
20260508154554 19 261 3.2 11.3 0.00 0.00 0.00 58 1018.7
20260508153056 20 0 1.6 6.4 0.00 0.00 0.00 56 1019.0
20260508151556 18 142 1.6 8.0 0.00 0.00 0.00 60 1019.1
20260508150059 18 208 1.6 6.4 0.00 0.00 0.00 62 1019.1
20260508144555 18 71 0.0 9.7 0.00 0.00 0.00 63 1019.2
20260508143104 18 111 0.0 8.0 0.00 0.00 0.00 61 1019.1
20260508141554 18 107 3.2 6.4 0.00 0.00 0.00 61 1019.0
20260508140104 18 139 0.0 4.8 0.00 0.00 0.00 61 1019.4
20260508134604 17 105 0.0 4.8 0.00 0.10 0.00 64 1019.5
20260508133055 16 146 0.0 4.8 0.00 0.10 0.00 73 1019.4
20260508131553 15 32 0.0 3.2 0.00 0.10 0.00 77 1019.5
20260508130053 13 0 0.0 3.2 0.00 0.10 0.00 86 1019.5
20260508124554 12 0 0.0 0.0 0.00 0.28 0.00 96 1019.0
20260508123100 11 0 0.0 0.0 0.00 0.28 0.00 96 1018.8
20260508121558 10 0 0.0 0.0 0.00 0.28 0.00 96 1018.5
20260508120059 10 0 0.0 0.0 0.00 0.28 0.00 95 1018.2
20260508114609 10 0 0.0 0.0 0.00 0.56 0.00 95 1018.2
20260508113105 9 0 0.0 0.0 0.00 0.56 0.00 94 1018.0
20260508111614 9 0 0.0 0.0 0.00 0.56 0.00 94 1017.6
20260508110100 8 0 0.0 0.0 0.00 0.56 0.00 94 1017.2
20260508104601 8 0 0.0 0.0 0.00 0.79 0.00 94 1017.0
20260508103057 8 0 0.0 0.0 0.00 0.79 0.00 93 1016.7
20260508101558 9 0 0.0 0.0 0.00 0.79 0.00 94 1016.6
20260508100100 9 0 0.0 0.0 0.00 0.79 0.00 94 1016.3
20260508094601 9 0 0.0 0.0 0.00 0.94 0.00 93 1016.1
20260508093104 9 0 0.0 0.0 0.00 0.94 0.00 93 1016.1
20260508091613 9 0 0.0 0.0 0.00 0.94 0.00 93 1015.9
20260508084558 9 0 0.0 0.0 0.00 1.14 0.00 93 1015.6
20260508083108 10 0 0.0 0.0 0.00 1.14 0.00 93 1015.7
20260508081609 10 0 0.0 0.0 0.00 1.14 0.00 93 1015.5
20260508080105 10 0 0.0 0.0 0.00 1.14 0.00 92 1015.4
20260508074604 10 0 0.0 0.0 0.00 2.11 0.00 92 1015.6
20260508073100 10 0 0.0 0.0 0.00 2.11 0.00 92 1015.4
20260508071556 10 0 0.0 1.6 0.00 2.11 0.00 92 1015.5
20260508070059 10 0 0.0 1.6 0.00 2.11 0.00 92 1015.4
20260508064602 10 0 0.0 3.2 0.00 2.39 0.00 91 1015.3
20260508063105 11 0 0.0 1.6 0.00 2.39 0.00 91 1015.2
20260508061601 11 0 0.0 0.0 0.00 2.39 0.00 90 1015.2
20260508060058 11 0 0.0 1.6 0.00 2.39 0.00 89 1015.3
20260508054556 11 0 0.0 1.6 0.00 2.79 0.00 89 1015.3
20260508053106 11 0 0.0 1.6 0.00 2.79 0.00 88 1015.4
20260508051606 12 0 0.0 1.6 0.00 2.79 0.00 86 1015.4
20260508050058 12 0 0.0 1.6 0.00 2.79 0.00 86 1015.4
20260508044605 12 0 0.0 0.0 0.00 3.25 0.00 84 1015.3
20260508043056 13 0 0.0 1.6 0.00 3.25 0.00 83 1015.1
20260508041600 13 0 0.0 1.6 0.00 3.25 0.00 83 1015.1
20260508040058 13 0 0.0 1.6 0.00 3.25 0.00 80 1014.9
20260508034600 14 0 0.0 0.0 0.00 3.25 3.25 78 1014.9
20260508033101 15 5 0.0 3.2 0.00 3.25 3.25 79 1015.1
20260508031557 16 0 0.0 1.6 0.00 3.25 3.25 79 1014.9
20260508030059 16 0 1.6 4.8 0.00 3.25 3.25 69 1014.6
20260508024604 16 5 1.6 4.8 0.00 3.25 3.25 72 1014.3
20260508023058 16 5 0.0 3.2 0.00 3.25 3.25 73 1014.2
20260508021619 16 0 0.0 1.6 0.00 3.25 3.25 79 1014.0
20260508020100 16 5 0.0 1.6 0.00 3.25 3.25 79 1014.0
20260508014601 16 0 0.0 3.2 0.00 3.45 3.25 78 1013.8
20260508013058 17 0 0.0 3.2 0.00 3.45 3.25 77 1013.5
20260508011609 17 0 0.0 1.6 0.00 3.45 3.25 75 1013.2
20260508010056 17 5 1.6 3.2 0.00 3.45 3.25 72 1013.1
20260508004603 18 5 0.0 3.2 0.00 5.44 3.25 72 1012.6
20260508003058 18 0 0.0 0.0 0.00 5.44 3.25 69 1012.3
20260508001555 19 0 0.0 1.6 0.00 5.44 3.25 68 1012.1